This is the latest recevied weather packets stored in our database for station/object VK4AB-13. If no packets are shown the sender has not sent any weather packets the latest 10 day(s).
| Time | Temp. | Humidity | Pressure | Rain* | Wind** | Luminosity | Snow |
|---|---|---|---|---|---|---|---|
| 1777670034 | 18.89° C | 96% | 1021.2 hPa | 0.25 mm | - | 120 W/m² | - |
| 1777669734 | 18.89° C | 96% | 1021.3 hPa | 0.25 mm | - | 72 W/m² | - |
| 1777669434 | 18.33° C | 95% | 1021.1 hPa | 0 mm | - | 81 W/m² | - |
| 1777669134 | 18.33° C | 95% | 1021.1 hPa | 0 mm | - | 11 W/m² | - |
| 1777668834 | 18.33° C | 95% | 1021 hPa | 0 mm | - | 9 W/m² | - |
| 1777668534 | 18.33° C | 95% | 1020.9 hPa | 0 mm | - | 11 W/m² | - |
| 1777668234 | 18.33° C | 95% | 1020.9 hPa | 0 mm | - | 11 W/m² | - |
| 1777667934 | 18.33° C | 95% | 1020.9 hPa | 0 mm | - | 7 W/m² | - |
| 1777667634 | 18.33° C | 95% | 1020.9 hPa | 0 mm | - | 7 W/m² | - |
| 1777667334 | 17.78° C | 95% | 1020.9 hPa | 0 mm | - | 5 W/m² | - |
| 1777667034 | 17.78° C | 95% | 1020.9 hPa | 0 mm | - | 0 W/m² | - |
| 1777666734 | 17.78° C | 95% | 1020.9 hPa | 0 mm | - | 0 W/m² | - |
| 1777666434 | 17.78° C | 94% | 1021 hPa | 0 mm | - | 0 W/m² | - |
| 1777666134 | 17.78° C | 94% | 1020.9 hPa | 0 mm | - | 0 W/m² | - |
| 1777665834 | 17.78° C | 94% | 1020.9 hPa | 0 mm | - | 0 W/m² | - |
| 1777665568 | 17.78° C | 94% | 1020.9 hPa | 0 mm | - | 0 W/m² | - |
| 1777665534 | 17.78° C | 94% | 1020.9 hPa | 0 mm | - | 0 W/m² | - |
| 1777665234 | 17.78° C | 94% | 1020.9 hPa | 0 mm | - | 0 W/m² | - |
| 1777664934 | 17.78° C | 94% | 1020.9 hPa | 0 mm | - | 0 W/m² | - |
| 1777664634 | 17.78° C | 94% | 1020.9 hPa | 0 mm | - | 0 W/m² | - |
| 1777664334 | 18.33° C | 94% | 1020.8 hPa | 0 mm | - | 0 W/m² | - |
| 1777664034 | 18.33° C | 94% | 1020.7 hPa | 0 mm | - | 0 W/m² | - |
| 1777663734 | 18.33° C | 94% | 1020.6 hPa | 0 mm | - | 0 W/m² | - |
| 1777663434 | 18.33° C | 94% | 1020.6 hPa | 0 mm | - | 0 W/m² | - |
| 1777663134 | 18.33° C | 94% | 1020.5 hPa | 0 mm | - | 0 W/m² | - |
* Rain latest hour (hover to see other rain measurements)
** Current wind speed in m/s (hover to see current wind gust speed)